Other Public Products
Issued by NWS Grand Forks, ND

Home | Current Version | Previous Version | Text Only | Print | Product List | Glossary Off
Versions: 1 2 3 4 5 6 7 8 9 10 11 12 13 14 15 16 17 18 19 20 21 22 23 24 25 26 27 28 29 30 31 32 33 34 35 36 37 38 39 40 41 42 43 44 45 46 47 48 49 50

000
FPUS83 KFGF 310731
OPUFGF
PRAIRIE TO PINES WEATHER ROUNDUP
NATIONAL WEATHER SERVICE EASTERN NORTH DAKOTA/GRAND FORKS ND
100 AM CST SAT JAN 31 2015

 **SATELLITE DATA USED TO AUGMENT SKY COVER AT AUTOMATED STATIONS**
 *****  WEATHER ACROSS EASTERN NORTH DAKOTA  *****

CITY           SKY/WX    TMP DP  RH WIND       PRES   REMARKS
GRAND FORKS    CLOUDY    17  12  80 N21       30.25R WCI   0
GRAND FORKS AF FLURRIES  16  10  79 N17G23    30.25R WCI   0
GRAND CITY NWS   N/A     16 N/A N/A N21         N/A  WCI  -2
BUXTON           N/A     17  15  91 N12G26      N/A  WCI   5
DEVILS LAKE    CLOUDY    18   9  68 N17G23    30.22S WCI   2
FARGO          CLOUDY    22  15  75 N22G30    30.18S WCI   6
WAHPETON ARPT  CLOUDY    27  21  80 N14       30.17R WCI  15
$$

 *****  WEATHER ACROSS CENTRAL AND WESTERN NORTH DAKOTA  *****

CITY           SKY/WX    TMP DP  RH WIND       PRES   REMARKS
JAMESTOWN      CLOUDY    24  20  84 N16       30.18S WCI  11
BISMARCK       CLOUDY    24  22  91 NE10      30.20R WCI  14
MINOT          CLOUDY    19  14  81 N13       30.23R WCI   6
MINOT AFB      CLOUDY    19  18  93 NE12      30.24R WCI   7
GARRISON         N/A     23  20  88 NE9       30.19R WCI  13
WILLISTON      CLOUDY    22  19  89 NE14      30.20S WCI   9
DICKINSON      CLOUDY    25  23  92 NE14      30.11S FOG     WCI  13
HETTINGER      CLEAR     24  20  84 CALM      30.11F
$$

 *****  OTHER OBSERVATIONS NORTHEAST NORTH DAKOTA  *****

CITY           SKY/WX    TMP DP  RH WIND       PRES   REMARKS
WALHALLA       FLURRIES  10  10 100 N14G21    30.31S WCI  -5
LANGDON        NOT AVBL
CAVALIER       LGT SNOW  14   9  79 N17G26    30.29S WCI  -3
GRAFTON        NOT AVBL
CANDO          CLOUDY    14   9  79 N20       30.25S WCI  -3
FORT TOTTEN      N/A     18  13  80 N7        29.95S WCI   9
ROLLA          CLOUDY     9   5  85 NE17      30.24S WCI -10
RUGBY          CLOUDY    18  16  93 NE15      30.24S WCI   3
 ***** THE ABOVE OBSERVATIONS ARE NON NWS ARE NOT QUALITY
        CONTROLLED AND MAY MIS-REPORT RAIN FOR SNOW...
$$

 *****  OTHER OBSERVATIONS SOUTHEAST NORTH DAKOTA *****

CITY           SKY/WX    TMP DP  RH WIND       PRES   REMARKS
COOPERSTOWN    NOT AVBL
VALLEY CITY    MIX PCPN  21  21 100 N13G22    30.18S WCI   9
OAKES            N/A     25  25 100 N15       30.17S WCI  12
GWINNER        CLOUDY    28  28 100 N17       30.18S WCI  16
SHEYENNE NWR     N/A     25  21  84 N10       29.95  WCI  15
BUFFALO        NOT AVBL
WYNDMERE         N/A     27  25  93 N12         N/A  WCI  16
 ***** THE ABOVE OBSERVATIONS ARE NON NWS ARE NOT QUALITY
       CONTROLLED AND MAY MIS-REPORT RAIN FOR SNOW...
$$

  *****  WEATHER ACROSS NORTHERN MINNESOTA  *****

CITY           SKY/WX    TMP DP  RH WIND       PRES   REMARKS
FLAG ISLAND    FLURRIES  12   9  85 NW20      30.18R WCI  -6
WARROAD        CLOUDY    14  10  85 NW16      30.19S WCI  -2
ROSEAU         CLOUDY    16  10  79 N14       30.20S WCI   1
HALLOCK        CLOUDY    14   7  73 N18       30.26R WCI  -3
THF RVR FALLS  CLOUDY    18  14  86 N16       30.19R WCI   3
HALSTAD          N/A     19  14  81 N22         N/A  WCI   2
FOSSTON        CLOUDY    18  16  93 NW13      30.15R WCI   4
BAUDETTE       CLOUDY    15  11  83 NW17      30.14R WCI  -1
WASKISH        CLOUDY    19  16  86 NW6       30.14R WCI  11
CROOKSTON      CLOUDY    18  14  86 N21G26    30.23S WCI   1
$$
  *****  WEATHER ACROSS CENTRAL AND WEST MINNESOTA  *****

CITY           SKY/WX    TMP DP  RH WIND       PRES   REMARKS
BEMIDJI        CLOUDY    22  19  85 N13G18    30.10S WCI  10
PARK RAPIDS    CLOUDY    22  19  89 NW8       30.08S WCI  12
WADENA         MOCLDY    19  18  93 NW5       30.10S WCI  13
DETROIT LAKES  CLOUDY    23  21  93 N13G21    30.13S WCI  11
MOORHEAD       CLOUDY    23  21  93 N20       30.18F WCI   8
FERGUS FALLS   CLOUDY    25  23  93 N8G16     30.16S WCI  16
ELBOW LAKE     FAIR      21  19  93 NW8       30.13R WCI  11
MORRIS MN      CLEAR     25  21  86 NW12      30.12S WCI  14
STAPLES        CLOUDY    16  16 100 CALM      30.09S
WHEATON        CLOUDY    25  21  86 NW9       30.18S WCI  15
$$
  *****  WEATHER ELSEWHERE ACROSS MINNESOTA  *****

CITY           SKY/WX    TMP DP  RH WIND       PRES   REMARKS
DULUTH         CLOUDY    19  10  68 W7        30.06F WCI  10
INTRNTL FALLS  CLOUDY    16  11  80 NW10      30.11R WCI   4
ELY            CLOUDY    14  10  85 CALM      30.06F
CLOQUET        CLOUDY    19  12  73 CALM      30.07F
BRAINERD       CLOUDY    24  19  81 CALM      30.09F
HIBBING        CLOUDY    18   8  65 CALM      30.07F
ALEXANDRIA     CLEAR     23  21  92 NW7       30.10S WCI  15
SAINT CLOUD    CLEAR     18  16  92 CALM      30.11R
MINNEAPOLIS    PTCLDY    21  17  84 SE3       30.13F
$$

  *****  WEATHER ACROSS SOUTH DAKOTA  *****

CITY           SKY/WX    TMP DP  RH WIND       PRES   REMARKS
SIOUX FALLS    CLEAR     30  25  81 S3        30.11F
BROOKINGS      NOT AVBL
WATERTOWN      CLEAR     22  20  92 N5        30.10S FOG     WCI  16
HURON          CLEAR     26  23  88 N8        30.12S WCI  18
SISSETON         N/A     27  25  92 N14       30.15S WCI  16
ABERDEEN       CLOUDY    27  24  89 N14       30.17R FOG     WCI  16
MITCHELL       PTCLDY    27  25  92 W5        30.12S WCI  22
PIERRE         PTCLDY    24  20  84 N8        30.11S WCI  15
MOBRIDGE       CLOUDY    29  26  89 NE7       30.13R FOG     WCI  22
RAPID CITY     CLOUDY    30  23  75 N8        30.09F WCI  22
$$

  *****  SOME WEATHER IN NEARBY STATES *****

CITY           SKY/WX    TMP DP  RH WIND       PRES   REMARKS
GLASGOW MT     MOCLDY    28  25  88 E20       30.10R WCI  15
GREAT FALLS MT MOCLDY    33  19  56 SW14      29.97F WCI  23
CHEYENNE WY    CLOUDY    32  23  69 NW6       30.03S
SCOTTSBLUFF NE CLOUDY    35  27  72 N5        30.03F
OMAHA NE       CLOUDY    33  25  72 SE8       30.23F
DES MOINES IA  PTCLDY    27  18  69 S7        30.25F WCI  19
DAVENPORT IA   CLOUDY    26  17  68 SW8       30.32F WCI  18
CHICAGO IL     CLOUDY    21  14  74 S6        30.31F WCI  13
EAU CLAIRE WI  CLOUDY    20   9  62 CALM      30.15F
LA CROSSE WI   CLEAR     24  13  62 S12       30.20F WCI  13
$$

  *****  SOME NATIONAL WEATHER *****

CITY           SKY/WX    TMP DP  RH WIND       PRES   REMARKS
LA GUARDIA NY  PTCLDY    18   5  57 NW30G46   30.03R WCI  -1
RALEIGH NC     PTCLDY    26   8  46 CALM      30.31R
ATLANTA GA     PTCLDY    34  20  56 NW8       30.32S
NEW ORLEANS LA PTCLDY    50  36  58 E7        30.31F
OKLAHOMA CITY  CLOUDY    44  26  49 SE10      30.24F
ALBUQUERQUE NM CLOUDY    36  32  85 VRB5      30.02F
SALT LAKE CITY CLOUDY    41  36  82 W8        29.97S
LOS ANGELES CA MOCLDY    59  57  93 CALM      29.86F
BOISE ID       CLEAR     29  25  85 CALM      30.16S
SEATTLE WA     FOG       39  38  96 W3        30.25S VSB 1/8
$$

*** WEATHER ACROSS MANITOBA...SASKATCHEWAN AND ONTARIO ***
                ***ONTARIO***

CITY           SKY/WX    TMP DP  RH WIND       PRES   REMARKS
GERALDTON      FLURRIES   1  -2  85 SE2       30.01F
THUNDER BAY    FLURRIES   9   7  92 W3        30.10F
SIOUX LOOKOUT  FLURRIES   9   5  85 NW8       30.06S WCI  -4
TORONTO        MOCLDY     1  -4  78 W3        30.35F
BIG TROUT LK   PTCLDY   -18 -24  76 N13G21    30.16R HAZE    WCI -41
PICKLE LAKE    NOT AVBL
DRYDEN         FLURRIES   9   7  92 W9        30.08R WCI  -5
KENORA         LGT SNOW  10   7  85 NW13G20   30.14  WCI  -5
$$
                *** MANITOBA***

CITY           SKY/WX    TMP DP  RH WIND       PRES   REMARKS
BRANDON        MOCLDY     3  -4  72 N5        30.34R WCI  -6
DAUPHIN        CLEAR      1  -4  78 N7        30.44R WCI -11
ISLAND LAKE    CLEAR    -18 -26  69 N13G20    30.33R WCI -41
PILOT MOUND      N/A      5   1  85 N15         N/A  WCI -13
THE PAS        PTCLDY   -17 -22  76 N8        30.54R WCI -34
THOMPSON       CRYSTALS -24 -33  62 NW10      30.45R WCI -46
WINNIPEG       PTCLDY     5   0  78 N15       30.33S WCI -13
LYNN LAKE      CLEAR    -26 -35  62 NW10G18   30.48R WCI -48
CHURCHILL      BLWGSNOW -24 -31  69 NW30G38   30.27R VSB 1/4 WCI -58
GILLAM         CLEAR    -27 -36  62 NW14G21   30.34R WCI -54
$$
                ***SASKATCHEWAN***

CITY           SKY/WX    TMP DP  RH WIND       PRES   REMARKS
ESTEVAN        LGT SNOW  18  16  93 E10       30.25R VSB 3/4 WCI   6
KINDERSLEY     LGT SNOW  12   7  79 NE24      30.29R DRFTSNOWWCI  -8
LLOYDMINSTER   PTCLDY     3  -2  78 NE14G22   30.41R WCI -15
PRINCE ALBERT  PTCLDY    -4  -9  77 N12       30.52R WCI -22
REGINA         LGT SNOW  10   7  85 NE16      30.31R FOG     WCI  -7


USA.gov is the U.S. government's official web portal to all federal, state and local government web resources and services.